Rochester/St. Mary\'s Hospita, MN

9:18 PM CST on December 13, 2019 (GMT -0600)
Rochester/St. Mary\'s Hospita

Weather History for K9MN - October, 2019

Change the Weather History Date:

Sunday, October 13, 2019

  Actual Average (WUND) Record (WUND)
Temperature  
Mean Temperature 38 °F -  
Max Temperature 41 °F - - (-1)
Min Temperature 34 °F - - (-1)
Degree Days  
Heating Degree Days 28    
Moisture  
Dew Point 31 °F    
Average Humidity 78    
Maximum Humidity 89    
Minimum Humidity 67    
Precipitation  
Precipitation 0.00 in - - ()
Sea Level Pressure  
Sea Level Pressure 29.79 in    
Wind  
Wind Speed 11 mph (WSW)    
Max Wind Speed 18 mph    
Max Gust Speed 28 mph    
Visibility 10 miles    
Events      
Averages and records for this station are not official NWS values.
T = Trace of Precipitation, MM = Missing Value Source: NWS Daily Summary

Daily Weather History Graph

Daily Weather History Graph

Search for Another Location

Airport or City:

Astronomy

Oct. 13, 2019 Rise Set
Actual Time 7:21 AM CDT 6:29 PM CDT
Civil Twilight 6:52 AM CDT 6:58 PM CDT
Nautical Twilight 6:19 AM CDT 7:32 PM CDT
Astronomical Twilight 5:45 AM CDT 8:05 PM CDT
Moon 6:54 PM CDT (10/13) 6:53 AM CDT (10/13)
Length of Visible Light 12h 06m
Length of Day
11h 08m
Full, 100% of the Moon is Illuminated
Oct 13
Full
Oct 13
Full
Oct 21
Last Quarter
Oct 27
New
Nov 4
First Quarter

Hourly Weather History & Observations

Time (CDT) Temp. Windchill Dew Point Humidity Pressure Visibility Wind Dir Wind Speed Gust Speed Precip Events Conditions
12:15 AM 35.2 °F 27.1 °F 29.8 °F 81% 29.69 in 10.0 mi WSW 11.5 mph 26.5 mph N/A   Overcast
12:16 AM 35.2 °F 26.6 °F 29.8 °F 81% 29.69 in 10.0 mi WSW 12.7 mph 21.9 mph N/A   Overcast
12:35 AM 35.2 °F 28.1 °F 29.8 °F 81% 29.70 in 10.0 mi WSW 9.2 mph 20.7 mph N/A   Overcast
12:55 AM 35.1 °F 25.9 °F 29.5 °F 80% 29.69 in 10.0 mi West 13.8 mph 21.9 mph N/A   Overcast
1:15 AM 35.2 °F 27.1 °F 29.7 °F 80% 29.70 in 10.0 mi West 11.5 mph 20.7 mph N/A   Overcast
1:16 AM 35.2 °F 27.1 °F 29.7 °F 80% 29.69 in 10.0 mi WSW 11.5 mph 20.7 mph N/A   Overcast
1:35 AM 35.1 °F 26.9 °F 29.8 °F 81% 29.69 in 10.0 mi WSW 11.5 mph 23.0 mph N/A   Overcast
1:55 AM 35.1 °F 25.9 °F 29.8 °F 81% 29.69 in 10.0 mi WSW 13.8 mph 21.9 mph N/A   Overcast
2:15 AM 35.1 °F 27.4 °F 29.8 °F 81% 29.70 in 10.0 mi WSW 10.4 mph 17.3 mph N/A   Overcast
2:35 AM 35.2 °F 28.8 °F 29.8 °F 81% 29.70 in 10.0 mi WSW 8.1 mph 18.4 mph N/A   Overcast
2:36 AM 35.2 °F 29.5 °F 29.8 °F 81% 29.70 in 10.0 mi West 6.9 mph 17.3 mph N/A   Overcast
2:55 AM 34.9 °F 25.7 °F 29.8 °F 82% 29.70 in 10.0 mi WSW 13.8 mph 25.3 mph N/A   Overcast
2:56 AM 34.9 °F 25.3 °F 29.8 °F 82% 29.70 in 10.0 mi WSW 15.0 mph 25.3 mph N/A   Overcast
3:15 AM 34.9 °F 26.2 °F 29.7 °F 81% 29.70 in 10.0 mi WSW 12.7 mph 20.7 mph N/A   Overcast
3:35 AM 35.1 °F 27.9 °F 29.8 °F 81% 29.70 in 10.0 mi West 9.2 mph 20.7 mph N/A   Overcast
3:55 AM 35.1 °F 27.4 °F 29.7 °F 81% 29.70 in 10.0 mi WSW 10.4 mph 26.5 mph N/A   Overcast
3:56 AM 35.1 °F 27.9 °F 29.7 °F 81% 29.70 in 10.0 mi West 9.2 mph 26.5 mph N/A   Overcast
4:15 AM 35.1 °F 28.6 °F 29.7 °F 81% 29.70 in 10.0 mi West 8.1 mph 18.4 mph N/A   Overcast
4:16 AM 35.1 °F 29.3 °F 29.8 °F 81% 29.71 in 10.0 mi West 6.9 mph 18.4 mph N/A   Overcast
4:35 AM 35.1 °F 27.9 °F 29.7 °F 81% 29.70 in 10.0 mi West 9.2 mph 21.9 mph N/A   Overcast
4:55 AM 35.1 °F 25.9 °F 29.5 °F 80% 29.70 in 10.0 mi West 13.8 mph 24.2 mph N/A   Overcast
5:15 AM 35.1 °F 29.3 °F 29.8 °F 81% 29.71 in 10.0 mi West 6.9 mph 20.7 mph N/A   Overcast
5:16 AM 35.1 °F 28.6 °F 29.8 °F 81% 29.71 in 10.0 mi West 8.1 mph 20.7 mph N/A   Overcast
5:35 AM 35.1 °F 27.9 °F 30.0 °F 82% 29.71 in 10.0 mi West 9.2 mph 18.4 mph N/A   Overcast
5:36 AM 35.1 °F 27.4 °F 30.0 °F 82% 29.71 in 10.0 mi West 10.4 mph 18.4 mph N/A   Overcast
5:55 AM 35.2 °F 26.6 °F 30.2 °F 82% 29.72 in 10.0 mi WSW 12.7 mph 21.9 mph N/A   Overcast
6:15 AM 35.4 °F 26.0 °F 30.0 °F 81% 29.72 in 10.0 mi WSW 15.0 mph 19.6 mph N/A   Overcast
6:35 AM 35.2 °F 26.6 °F 29.8 °F 81% 29.71 in 10.0 mi WSW 12.7 mph 19.6 mph N/A   Overcast
6:36 AM 35.2 °F 26.2 °F 29.8 °F 81% 29.71 in 10.0 mi WSW 13.8 mph 20.7 mph N/A   Overcast
6:55 AM 35.1 °F 27.9 °F 30.0 °F 82% 29.72 in 10.0 mi WSW 9.2 mph 20.7 mph N/A   Overcast
6:56 AM 35.1 °F 26.9 °F 30.0 °F 82% 29.72 in 10.0 mi WSW 11.5 mph 20.7 mph N/A   Overcast
7:15 AM 35.4 °F 26.4 °F 30.2 °F 81% 29.73 in 10.0 mi WSW 13.8 mph 20.7 mph N/A   Overcast
7:35 AM 35.4 °F 27.3 °F 30.2 °F 81% 29.73 in 10.0 mi West 11.5 mph 27.6 mph N/A   Overcast
7:36 AM 35.4 °F 27.8 °F 30.2 °F 81% 29.73 in 10.0 mi West 10.4 mph 24.2 mph N/A   Overcast
7:55 AM 35.2 °F 27.1 °F 30.0 °F 81% 29.73 in 10.0 mi West 11.5 mph 20.7 mph N/A   Overcast
7:56 AM 35.2 °F 26.6 °F 30.0 °F 81% 29.74 in 10.0 mi West 12.7 mph 23.0 mph N/A   Overcast
8:15 AM 35.1 °F 25.9 °F 30.7 °F 84% 29.74 in 5.0 mi WSW 13.8 mph 24.2 mph N/A   Overcast
8:35 AM 34.7 °F 26.9 °F 31.5 °F 88% 29.74 in 7.0 mi WSW 10.4 mph 20.7 mph N/A   Overcast
8:55 AM 34.9 °F 27.1 °F 32.0 °F 89% 29.74 in 10.0 mi West 10.4 mph 16.1 mph N/A   Overcast
9:15 AM 35.1 °F 26.9 °F 31.8 °F 88% 29.74 in 10.0 mi West 11.5 mph 21.9 mph N/A   Overcast
9:16 AM 35.1 °F 27.4 °F 31.8 °F 88% 29.74 in 10.0 mi West 10.4 mph 21.9 mph N/A   Overcast
9:35 AM 35.6 °F 28.6 °F 31.6 °F 85% 29.74 in 10.0 mi West 9.2 mph 23.0 mph N/A   Overcast
9:36 AM 35.6 °F 28.0 °F 31.6 °F 85% 29.74 in 10.0 mi WSW 10.4 mph 23.0 mph N/A   Overcast
9:55 AM 35.6 °F 27.5 °F 31.1 °F 84% 29.75 in 10.0 mi West 11.5 mph 20.7 mph N/A   Overcast
10:15 AM 36.5 °F 27.8 °F 31.1 °F 81% 29.75 in 10.0 mi West 13.8 mph 23.0 mph N/A   Overcast
10:35 AM 36.5 °F 28.2 °F 30.6 °F 79% 29.76 in 10.0 mi WSW 12.7 mph 24.2 mph N/A   Overcast
10:36 AM 36.5 °F 27.8 °F 30.6 °F 79% 29.76 in 10.0 mi WSW 13.8 mph 24.2 mph N/A   Overcast
10:55 AM 36.7 °F 28.9 °F 30.9 °F 80% 29.77 in 7.0 mi West 11.5 mph 25.3 mph N/A   Overcast
10:56 AM 36.7 °F 28.0 °F 30.9 °F 80% 29.77 in 7.0 mi West 13.8 mph 25.3 mph N/A   Overcast
11:15 AM 36.3 °F 28.4 °F 32.2 °F 85% 29.78 in 5.0 mi West 11.5 mph 21.9 mph N/A   Overcast
11:35 AM 36.9 °F 29.1 °F 32.5 °F 84% 29.78 in 10.0 mi West 11.5 mph - N/A   Overcast
11:55 AM 37.4 °F 28.9 °F 32.0 °F 81% 29.78 in 10.0 mi West 13.8 mph 21.9 mph N/A   Overcast
11:56 AM 37.6 °F 29.1 °F 32.0 °F 80% 29.78 in 10.0 mi WSW 13.8 mph 21.9 mph N/A   Overcast
12:15 PM 37.9 °F 30.5 °F 31.1 °F 76% 29.79 in 10.0 mi WSW 11.5 mph 24.2 mph N/A   Overcast
12:16 PM 38.1 °F 30.2 °F 31.1 °F 76% 29.79 in 10.0 mi West 12.7 mph 24.2 mph N/A   Overcast
12:35 PM 38.3 °F 29.3 °F 30.9 °F 75% 29.78 in 10.0 mi West 16.1 mph 25.3 mph N/A   Overcast
12:55 PM 38.8 °F 30.8 °F 31.3 °F 74% 29.79 in 10.0 mi WSW 13.8 mph 19.6 mph N/A   Overcast
1:15 PM 38.7 °F 32.4 °F 31.1 °F 74% 29.79 in 10.0 mi West 9.2 mph 27.6 mph N/A   Overcast
1:16 PM 38.7 °F 31.4 °F 31.3 °F 75% 29.79 in 10.0 mi West 11.5 mph 27.6 mph N/A   Overcast
1:35 PM 39.6 °F 32.5 °F 31.1 °F 72% 29.79 in 10.0 mi WSW 11.5 mph 23.0 mph N/A   Overcast
1:36 PM 39.6 °F 31.3 °F 31.1 °F 72% 29.79 in 10.0 mi WSW 15.0 mph 24.2 mph N/A   Overcast
1:55 PM 39.2 °F 31.2 °F 30.6 °F 71% 29.79 in 10.0 mi West 13.8 mph 24.2 mph N/A   Overcast
2:15 PM 39.4 °F 32.3 °F 30.7 °F 71% 29.80 in 10.0 mi WSW 11.5 mph 19.6 mph N/A   Overcast
2:35 PM 39.7 °F 32.3 °F 30.6 °F 70% 29.80 in 10.0 mi West 12.7 mph 21.9 mph N/A   Overcast
2:36 PM 39.7 °F 32.7 °F 30.6 °F 70% 29.80 in 10.0 mi West 11.5 mph 21.9 mph N/A   Overcast
2:55 PM 40.1 °F 32.0 °F 31.1 °F 70% 29.80 in 10.0 mi WSW 15.0 mph 24.2 mph N/A   Overcast
2:56 PM 40.1 °F 31.0 °F 31.1 °F 70% 29.80 in 10.0 mi WSW 18.4 mph 24.2 mph N/A   Overcast
3:15 PM 39.6 °F 32.5 °F 31.8 °F 74% 29.81 in 10.0 mi West 11.5 mph 19.6 mph N/A   Overcast
3:35 PM 40.3 °F 32.6 °F 30.9 °F 69% 29.82 in 10.0 mi West 13.8 mph 23.0 mph N/A   Overcast
3:55 PM 41.0 °F 33.1 °F 30.7 °F 67% 29.82 in 10.0 mi WSW 15.0 mph 19.6 mph N/A   Overcast
3:56 PM 41.0 °F 33.5 °F 30.7 °F 67% 29.82 in 10.0 mi WSW 13.8 mph 19.6 mph N/A   Overcast
4:15 PM 40.8 °F 33.3 °F 30.7 °F 67% 29.83 in 10.0 mi WSW 13.8 mph 18.4 mph N/A   Overcast
4:16 PM 40.6 °F 33.0 °F 30.7 °F 68% 29.83 in 10.0 mi WSW 13.8 mph 20.7 mph N/A   Overcast
4:35 PM 39.9 °F 33.9 °F 32.0 °F 73% 29.83 in 10.0 mi West 9.2 mph 17.3 mph N/A   Overcast
4:55 PM 39.6 °F 33.5 °F 32.2 °F 75% 29.84 in 10.0 mi West 9.2 mph 17.3 mph N/A   Overcast
5:15 PM 39.2 °F 32.0 °F 32.0 °F 75% 29.84 in 10.0 mi West 11.5 mph 19.6 mph N/A   Overcast
5:16 PM 39.2 °F 32.0 °F 32.0 °F 75% 29.84 in 10.0 mi West 11.5 mph 19.6 mph N/A   Overcast
5:35 PM 39.2 °F 33.6 °F 31.8 °F 75% 29.85 in 10.0 mi West 8.1 mph 20.7 mph N/A   Overcast
5:36 PM 39.4 °F 33.2 °F 31.8 °F 74% 29.85 in 10.0 mi West 9.2 mph 17.3 mph N/A   Overcast
5:55 PM 40.3 °F 33.4 °F 31.3 °F 70% 29.86 in 10.0 mi West 11.5 mph 23.0 mph N/A   Overcast
6:15 PM 40.1 °F 32.7 °F 30.4 °F 68% 29.86 in 10.0 mi West 12.7 mph 21.9 mph N/A   Mostly Cloudy
6:35 PM 39.6 °F 35.4 °F 31.5 °F 73% 29.87 in 10.0 mi West 5.8 mph - N/A   Scattered Clouds
6:36 PM 39.6 °F 34.7 °F 31.5 °F 73% 29.87 in 10.0 mi West 6.9 mph - N/A   Scattered Clouds
6:55 PM 39.2 °F 33.0 °F 31.8 °F 75% 29.88 in 10.0 mi West 9.2 mph 16.1 mph N/A   Mostly Cloudy
6:56 PM 39.2 °F 33.6 °F 31.8 °F 75% 29.88 in 10.0 mi West 8.1 mph 16.1 mph N/A   Mostly Cloudy
7:15 PM 39.4 °F 33.2 °F 31.5 °F 73% 29.89 in 10.0 mi West 9.2 mph 16.1 mph N/A   Overcast
7:35 PM 39.6 °F 34.0 °F 31.5 °F 73% 29.90 in 10.0 mi West 8.1 mph - N/A   Overcast
7:55 PM 39.2 °F 32.5 °F 31.6 °F 74% 29.90 in 10.0 mi West 10.4 mph - N/A   Overcast
7:56 PM 39.2 °F 33.0 °F 31.6 °F 74% 29.90 in 10.0 mi West 9.2 mph - N/A   Overcast
8:15 PM 39.2 °F 34.2 °F 32.0 °F 75% 29.91 in 10.0 mi West 6.9 mph - N/A   Mostly Cloudy
8:16 PM 39.2 °F 34.2 °F 32.0 °F 75% 29.91 in 10.0 mi West 6.9 mph - N/A   Mostly Cloudy
8:35 PM 38.7 °F 31.8 °F 32.0 °F 77% 29.91 in 10.0 mi WSW 10.4 mph - N/A   Overcast
8:36 PM 38.7 °F 32.4 °F 32.0 °F 77% 29.91 in 10.0 mi WSW 9.2 mph - N/A   Overcast
8:55 PM 38.7 °F 32.9 °F 32.0 °F 77% 29.91 in 10.0 mi West 8.1 mph - N/A   Overcast
9:15 PM 38.1 °F 32.3 °F 31.6 °F 77% 29.92 in 10.0 mi West 8.1 mph - N/A   Scattered Clouds
9:35 PM 37.6 °F 30.5 °F 31.1 °F 77% 29.92 in 10.0 mi West 10.4 mph - N/A   Mostly Cloudy
9:36 PM 37.6 °F 30.5 °F 31.1 °F 77% 29.93 in 10.0 mi West 10.4 mph 16.1 mph N/A   Mostly Cloudy
9:55 PM 37.6 °F 31.6 °F 30.7 °F 76% 29.93 in 10.0 mi West 8.1 mph 18.4 mph N/A   Overcast
9:56 PM 37.6 °F 32.3 °F 30.7 °F 76% 29.93 in 10.0 mi WSW 6.9 mph 18.4 mph N/A   Overcast
10:15 PM 37.8 °F 30.7 °F 30.9 °F 76% 29.93 in 10.0 mi WSW 10.4 mph 18.4 mph N/A   Overcast
10:35 PM 37.8 °F 31.8 °F 31.1 °F 77% 29.93 in 10.0 mi West 8.1 mph 18.4 mph N/A   Overcast
10:36 PM 37.8 °F 31.8 °F 31.1 °F 77% 29.93 in 10.0 mi WSW 8.1 mph 16.1 mph N/A   Overcast
10:55 PM 37.4 °F 31.4 °F 31.5 °F 79% 29.93 in 10.0 mi West 8.1 mph - N/A   Overcast
10:56 PM 37.4 °F 30.8 °F 31.5 °F 79% 29.93 in 10.0 mi West 9.2 mph - N/A   Overcast
11:15 PM 37.4 °F 30.8 °F 31.6 °F 80% 29.94 in 10.0 mi West 9.2 mph 18.4 mph N/A   Mostly Cloudy
11:35 PM 37.0 °F 31.0 °F 31.8 °F 81% 29.94 in 10.0 mi West 8.1 mph - N/A   Scattered Clouds
11:55 PM 36.9 °F 32.2 °F 32.0 °F 83% 29.95 in 10.0 mi West 5.8 mph - N/A   Scattered Clouds